Wind_Speed
28 30 34 36 38 38 34 31 26 19 18 23 26 25 21 23 25 24 23 22 23 23 22 22 21 20 19 19 20 20 20 20 18 17 17 17 17 16 15 15 15 16 16 16 16 17 17 17 18 18 18 17 17 16 16 16 16 15 16 15 15 16 16 16 16 16 16 15 16 16 16 16 17 17 18 18 18 19 20 20 21 22 22 22 22 22
28 32 36 37 34 32 32 28 24 21 19 20 26 28 23 22 24 24 23 22 21 20 19 19 20 21 20 20 20 21 23 21 19 18 19 19 18 17 16 16 16 17 17 17 17 17 18 19 20 19 18 18 17 17 17 17 17 17 17 17 16 17 17 17 17 17 17 16 16 17 17 18 18 18 18 18 18 19 20 21 22 23 24 24 24 24
29 33 34 34 31 27 29 26 22 24 22 19 25 30 26 23 22 22 23 23 21 19 18 18 22 23 23 24 22 22 23 22 19 19 20 20 18 17 17 17 17 18 18 18 18 18 19 20 20 20 19 18 18 18 19 19 18 18 18 18 18 18 18 18 19 19 18 18 18 18 18 18 18 18 18 18 19 19 20 21 23 24 24 24 24 24
30 32 29 29 30 28 29 28 24 25 23 18 23 31 31 28 24 21 21 22 21 21 20 22 25 26 25 25 25 23 23 22 21 21 21 20 19 19 19 18 18 19 19 19 19 19 20 21 21 20 20 19 19 20 20 20 20 19 19 19 20 20 19 19 20 20 20 19 19 19 20 20 19 19 19 19 20 21 21 22 24 24 24 25 24 24
27 29 25 22 26 28 27 28 27 25 23 19 21 26 29 29 26 24 22 20 21 22 23 23 23 27 29 27 25 24 23 23 23 22 21 21 21 21 21 20 19 19 20 21 21 21 22 22 21 21 21 21 21 21 21 21 22 21 21 21 22 22 21 21 20 21 21 21 20 20 21 21 21 21 21 21 21 22 23 24 25 26 26 26 26 25
22 23 24 22 24 26 25 27 30 27 22 19 20 20 22 24 23 24 21 17 18 19 22 21 14 17 24 23 23 24 24 24 24 23 23 22 23 23 22 22 21 21 22 22 23 23 23 23 22 22 22 22 22 22 22 23 23 23 23 23 23 23 23 22 22 21 21 21 21 22 22 22 22 22 22 23 23 23 24 24 25 26 27 27 26 26
20 21 24 23 22 26 25 25 29 30 22 17 19 19 18 20 20 21 22 17 16 15 18 20 14 11 13 10 12 17 20 22 24 23 23 23 24 24 24 24 24 23 23 23 24 24 24 24 23 22 22 22 22 22 23 23 24 24 24 24 24 24 23 23 22 21 21 22 22 23 24 23 23 23 24 24 25 25 24 24 25 25 26 26 25 24
21 21 23 23 22 25 27 25 27 31 25 16 17 20 18 19 18 18 20 18 14 13 12 15 17 16 16 12 8 10 13 16 21 23 23 25 25 25 25 25 25 24 24 24 25 25 26 25 25 24 23 23 22 22 23 23 24 25 25 25 25 25 24 23 22 21 22 22 23 24 25 25 25 25 25 26 26 25 25 24 24 24 23 22 22 22
21 21 21 24 24 25 29 27 24 27 27 16 13 19 20 20 18 15 18 18 14 11 10 13 15 11 14 19 15 13 15 15 17 19 22 25 25 25 26 25 25 25 25 25 26 26 26 27 27 26 25 24 24 23 23 24 24 25 26 26 26 25 24 23 23 23 23 23 24 24 25 26 26 26 26 26 26 25 24 23 22 22 21 20 19 19
21 20 19 23 26 25 28 27 23 24 26 16 10 16 20 18 16 13 15 17 12 9 10 13 16 10 8 17 20 19 22 22 19 18 20 22 23 25 25 25 25 26 26 26 26 26 26 27 28 28 28 27 26 26 25 25 25 25 26 26 26 26 25 24 24 24 24 24 24 24 25 26 26 26 26 25 24 23 22 20 19 19 18 17 17 17
23 23 22 24 26 25 26 27 25 24 24 18 12 17 19 16 15 13 12 13 8 6 11 12 16 13 6 10 16 20 22 22 21 22 22 21 21 22 23 24 25 25 26 26 26 26 26 27 28 29 30 30 29 28 27 26 26 26 26 26 26 26 26 26 25 25 24 24 24 24 25 26 27 26 25 23 22 20 19 18 17 16 16 16 16 16
23 24 25 27 27 26 25 27 27 25 25 22 16 18 17 11 11 10 9 11 5 3 9 14 16 16 11 8 9 14 18 19 19 22 22 20 20 21 21 22 23 23 24 25 25 26 26 27 28 29 30 30 30 29 28 27 27 27 26 26 26 26 26 26 25 24 24 24 24 24 25 26 25 24 21 19 18 17 17 16 15 15 15 15 15 16
22 24 26 26 27 27 26 26 27 25 25 24 20 20 15 8 6 6 5 6 5 2 7 13 15 15 18 18 15 15 18 18 18 20 20 19 19 20 21 21 21 22 22 23 24 24 24 25 26 28 29 30 30 29 28 27 26 25 25 25 25 25 25 24 24 23 23 23 23 24 24 23 21 18 16 16 15 15 14 14 14 14 14 15 16 17
17 18 25 27 26 27 26 27 28 27 26 25 24 23 17 7 3 3 3 2 3 3 7 12 12 11 17 20 21 22 22 20 19 18 17 16 17 18 20 21 22 22 22 22 22 22 22 22 23 25 26 27 28 27 26 24 23 22 22 22 22 22 22 22 22 21 21 21 21 20 19 17 15 13 13 13 13 13 13 13 14 15 16 17 19 20
15 11 20 25 24 25 25 26 27 27 26 24 23 24 20 12 6 4 4 4 5 4 8 12 8 7 9 10 15 21 25 25 23 22 20 19 18 19 20 22 22 23 22 22 22 21 21 21 21 22 23 24 25 24 23 21 20 19 18 18 18 18 19 19 18 18 18 17 17 16 14 12 11 11 11 11 12 13 13 15 16 17 19 20 22 24
23 16 19 23 21 22 23 24 24 23 23 23 22 23 21 15 10 7 6 7 9 7 6 11 10 10 10 8 10 14 17 19 20 22 24 24 24 22 21 21 22 22 22 22 22 22 22 22 21 21 22 22 23 22 21 18 16 15 14 14 15 15 15 15 15 15 14 14 14 13 12 11 11 11 12 12 13 15 16 17 19 20 22 24 25 27
25 19 20 24 22 22 22 24 24 23 22 24 23 24 23 17 11 8 6 6 8 5 5 12 14 17 16 14 16 17 17 16 15 17 20 22 24 24 22 21 20 19 19 19 20 21 21 21 21 20 20 20 20 19 17 15 13 12 12 12 12 13 13 13 14 13 13 13 12 11 11 11 12 13 14 15 16 17 18 20 21 23 25 27 28 30
26 19 18 26 26 25 25 25 26 26 24 25 26 26 24 17 12 10 5 3 4 2 4 12 16 17 15 13 16 19 21 21 19 17 18 20 23 23 22 20 19 18 17 17 17 17 18 19 19 18 18 17 16 14 13 11 11 11 11 12 13 13 14 14 14 13 13 12 12 12 13 13 15 16 17 18 19 20 21 22 24 25 27 29 31 32
28 19 15 24 27 26 27 27 27 28 26 26 27 28 24 15 13 15 8 2 3 2 2 8 13 15 16 16 16 17 18 18 18 17 17 18 20 21 21 21 20 19 17 16 15 15 15 16 16 15 14 13 12 11 10 10 11 11 12 13 14 14 14 14 14 14 14 14 14 14 15 16 17 18 19 20 21 22 23 24 25 26 29 31 33 35
30 22 14 22 29 27 28 30 30 30 29 26 25 28 26 17 12 17 15 7 4 3 2 4 5 10 18 21 19 18 16 14 14 15 16 15 15 16 17 17 17 17 16 15 14 14 14 14 14 13 12 11 10 10 10 11 12 13 13 14 15 15 15 15 15 15 15 16 16 16 17 18 19 20 20 21 23 24 25 26 27 28 31 33 35 36
27 24 16 20 25 25 27 30 32 32 31 29 27 28 29 24 15 13 18 16 8 3 3 2 2 6 12 14 16 18 18 17 16 15 14 13 13 13 13 13 14 14 15 14 14 14 14 14 14 13 11 10 10 10 11 13 14 15 15 16 16 16 16 16 16 17 17 17 18 18 18 19 20 21 22 23 25 26 27 29 30 32 33 35 37 38
23 23 19 19 24 26 27 29 31 31 32 32 30 30 31 30 22 10 8 16 17 9 4 2 2 2 2 4 8 11 13 14 14 15 16 15 15 15 13 12 13 14 15 15 15 15 15 15 14 13 12 11 11 12 14 15 16 16 17 17 17 17 17 17 17 18 19 19 19 19 20 21 22 24 25 26 27 29 31 32 34 35 36 37 38 39
25 22 19 18 23 26 25 26 29 29 31 32 31 30 28 29 28 17 7 11 17 14 7 2 2 3 4 5 4 5 7 9 10 12 15 16 18 18 14 13 14 15 16 17 17 17 16 16 15 14 14 13 14 15 16 17 18 18 19 19 19 19 18 18 19 20 21 21 21 21 22 24 25 26 27 28 30 31 33 34 35 36 37 38 38 39
29 23 19 16 17 23 24 23 27 28 28 30 32 33 30 29 32 27 14 8 11 15 14 6 3 12 16 13 13 13 12 12 11 11 13 15 17 17 16 16 16 16 19 20 20 19 18 18 18 17 17 17 17 17 18 19 19 20 21 21 21 21 20 20 21 22 23 23 23 24 25 26 27 27 28 30 32 34 35 36 37 37 38 38 39 40
28 22 21 15 8 10 15 14 20 27 29 31 33 35 33 30 29 28 20 11 7 13 17 10 8 20 25 22 22 19 15 14 14 13 15 15 15 15 16 18 18 18 20 21 21 21 21 20 20 19 19 19 19 19 19 20 21 22 23 23 23 23 23 23 23 24 24 24 25 26 27 27 28 28 30 32 34 37 38 38 38 39 40 40 41 40
28 24 25 19 9 7 10 12 20 29 33 33 33 34 33 31 30 29 26 19 12 13 17 16 17 24 24 20 19 17 15 15 14 13 15 16 15 16 17 19 20 20 21 22 23 23 22 22 21 21 21 21 21 22 22 23 24 24 25 25 25 25 25 25 25 24 25 25 27 28 28 29 29 31 32 34 36 39 40 41 41 42 42 42 41 41
30 29 30 29 25 23 23 24 26 29 31 32 32 33 34 35 35 33 28 25 25 22 20 23 27 29 27 23 19 17 17 18 16 15 15 14 14 16 18 20 21 22 23 23 24 24 24 23 23 23 24 24 24 25 25 26 26 26 27 27 27 27 27 26 26 26 26 28 29 29 30 30 31 33 34 35 36 39 42 43 43 44 43 42 41 40
31 32 32 32 33 33 32 30 28 27 28 29 29 31 34 35 36 36 32 32 34 25 20 28 34 34 34 30 25 23 22 19 18 16 14 14 15 16 19 22 22 23 25 25 25 25 25 25 25 26 26 26 27 27 28 29 29 28 29 29 29 29 28 28 27 27 29 30 31 31 31 31 32 34 35 36 37 40 42 44 45 45 43 42 41 40
32 32 33 33 32 32 31 28 27 27 27 27 27 28 30 33 36 38 36 37 36 31 28 34 37 37 37 33 30 29 26 22 20 18 16 17 17 17 20 22 23 23 24 24 25 26 26 27 28 28 28 28 29 30 30 31 31 31 31 31 31 31 30 29 29 29 31 32 32 32 32 32 34 36 37 38 39 41 43 45 45 44 43 41 40 39
32 32 32 32 32 32 30 27 25 25 24 24 24 24 25 28 31 33 33 33 35 37 37 37 37 39 37 33 31 30 26 25 26 23 21 19 18 18 20 21 22 21 21 21 23 25 26 28 28 28 29 29 30 32 33 33 34 33 33 34 33 32 32 30 29 30 32 33 33 33 34 34 36 37 39 39 40 41 44 45 45 43 41 40 39 39
29 27 27 30 30 29 31 30 27 25 23 22 22 20 20 22 24 27 29 30 34 39 38 37 41 42 37 33 33 32 30 29 29 26 24 21 20 20 21 21 20 18 18 20 22 25 27 27 28 28 29 30 32 34 35 36 36 36 36 36 35 34 33 31 30 31 32 33 33 34 35 36 37 39 40 40 40 41 43 45 44 42 40 39 39 39
29 24 22 24 24 25 28 29 28 27 26 24 24 23 24 26 27 30 31 31 33 35 34 37 42 40 33 31 33 34 35 34 32 30 26 22 21 22 22 23 21 21 22 24 27 29 29 27 27 26 28 31 35 37 37 38 37 37 37 37 37 36 34 32 31 32 33 33 34 34 35 37 39 40 41 41 40 41 43 44 43 41 40 39 39 39
29 25 20 19 19 20 22 24 27 25 19 22 31 35 34 35 36 35 35 34 34 34 33 37 40 37 32 32 33 35 37 36 35 33 29 26 26 26 26 27 28 28 28 29 31 31 29 28 26 27 30 33 37 39 39 39 39 39 39 39 39 38 36 33 31 32 32 33 33 34 35 39 42 43 42 41 41 42 43 43 42 41 40 39 40 40
32 29 24 21 19 18 18 20 21 16 13 25 40 42 39 40 39 38 39 40 40 39 40 41 40 37 35 36 37 37 37 36 35 33 31 30 30 30 29 29 29 30 29 30 32 32 30 28 27 29 32 35 39 41 41 41 41 40 40 40 40 39 37 34 33 33 33 34 33 34 37 42 44 44 42 41 41 42 42 41 41 40 40 41 41 42
37 36 32 29 26 21 18 17 11 9 23 41 45 40 39 39 38 39 42 44 44 44 44 44 44 43 41 39 39 38 38 37 34 32 30 29 28 28 29 28 29 29 29 31 33 33 31 30 30 32 35 37 40 42 42 43 42 42 42 41 40 39 38 36 35 35 35 35 34 35 39 43 45 44 42 42 41 41 41 40 40 40 41 42 43 44
35 37 36 33 29 22 16 14 11 15 32 42 40 38 40 39 37 39 43 46 45 44 44 45 46 46 43 41 40 39 39 38 36 35 33 31 29 28 26 26 27 29 30 31 31 32 31 31 33 35 37 39 41 43 44 44 43 43 43 42 41 39 38 38 38 38 38 36 35 36 40 44 45 44 43 42 41 40 40 40 40 41 42 44 45 46
31 34 36 33 31 28 23 20 21 23 29 38 42 42 42 40 38 39 42 45 43 40 42 44 44 45 45 43 41 41 40 38 38 39 38 36 34 30 27 27 28 29 31 32 32 34 34 35 36 38 39 40 42 44 45 45 44 44 43 42 41 40 40 40 41 41 40 37 37 38 41 44 45 44 42 41 40 39 39 40 41 42 44 45 46 46
31 32 34 32 30 32 26 17 14 13 23 41 48 45 40 37 34 33 36 42 41 37 38 40 39 41 42 41 41 41 39 39 40 42 40 36 34 32 31 32 32 33 34 35 36 37 38 39 39 40 40 41 43 44 45 45 45 45 44 43 42 41 42 42 43 42 40 38 38 40 41 43 43 42 40 39 39 39 40 41 42 44 45 46 47 46
32 32 34 32 28 30 28 18 11 14 29 45 45 40 37 35 30 24 25 38 45 39 35 37 37 37 37 35 36 37 36 39 42 42 38 33 31 31 31 32 33 34 35 35 36 37 38 39 40 41 41 42 42 43 44 45 45 45 45 44 43 43 43 43 42 41 40 39 39 39 41 42 42 40 39 39 39 41 42 43 45 46 47 47 47 47
33 32 33 33 29 30 30 25 20 25 37 42 37 34 32 29 23 16 16 32 41 35 32 34 32 30 30 29 31 34 36 37 38 38 35 32 30 29 29 30 31 32 33 35 36 37 37 38 39 40 41 41 41 42 43 44 45 45 45 45 44 44 44 43 42 41 40 40 39 40 41 42 41 40 40 40 42 43 45 46 47 47 47 46 47 47
33 33 33 35 34 31 29 26 25 31 39 38 35 34 28 19 17 22 25 32 31 24 27 27 21 20 21 21 25 29 30 29 30 30 29 27 26 26 27 28 29 29 31 33 34 35 35 36 37 37 38 38 39 41 42 44 45 46 46 45 44 44 43 42 41 40 39 39 40 41 41 41 40 41 41 42 44 45 46 47 46 46 47 47 47 48
34 32 31 35 35 31 29 26 22 30 41 41 34 30 24 19 24 30 33 33 26 24 28 25 19 17 16 16 19 22 22 23 24 25 24 22 22 23 25 26 27 28 29 30 31 32 33 33 34 34 35 36 38 40 42 44 45 46 45 44 43 42 41 40 39 39 39 39 40 40 40 40 40 41 42 44 45 45 45 46 46 47 47 48 49 50
36 32 30 36 37 30 26 21 16 25 39 38 30 27 27 28 30 31 32 30 27 28 28 25 21 18 16 17 19 19 21 23 22 23 23 23 23 25 26 27 28 28 29 31 32 33 34 34 34 34 34 36 38 40 42 43 44 44 43 41 40 39 39 38 38 38 38 38 38 38 39 40 41 42 43 44 44 45 45 46 47 47 48 49 51 52
36 35 34 39 40 33 29 28 28 35 39 32 29 32 33 32 32 31 28 27 26 26 26 26 25 22 21 22 23 23 26 27 26 28 29 28 28 28 29 30 30 30 30 31 33 35 36 36 36 34 34 35 36 38 40 40 41 40 39 39 38 38 38 37 37 36 36 36 37 38 39 39 41 42 43 44 44 45 46 47 47 48 49 51 52 53
34 36 36 38 39 37 37 38 41 44 41 34 32 32 29 27 28 28 28 26 24 23 24 24 23 23 24 24 24 26 28 28 28 29 27 26 25 25 25 26 26 26 28 28 30 31 32 33 33 32 32 33 34 35 36 36 37 37 36 36 36 36 35 35 35 35 36 37 37 38 38 40 42 43 43 44 45 46 47 47 48 49 51 52 52 52
35 35 35 36 35 35 38 42 43 42 41 38 33 28 25 24 23 22 22 23 22 23 24 24 25 27 27 26 24 24 24 24 25 24 23 23 23 23 24 24 24 24 25 25 26 27 27 29 30 30 30 30 31 32 33 33 33 34 34 33 33 33 33 34 35 36 36 36 37 38 39 41 42 43 43 45 46 47 48 49 50 51 52 51 51 50
38 38 38 37 36 36 39 42 43 42 42 41 37 33 30 27 24 23 22 23 25 27 28 28 29 28 27 25 23 21 22 23 24 23 23 23 23 23 24 24 24 25 25 24 25 25 26 28 29 29 29 29 29 29 30 30 31 31 31 32 32 32 33 34 35 35 35 37 38 40 41 42 42 43 45 46 47 48 49 50 51 51 50 50 49 48
41 40 40 40 41 42 44 44 43 42 43 44 43 38 32 29 28 29 29 29 31 31 30 28 27 26 25 24 22 22 23 23 23 23 22 22 22 22 23 23 24 24 25 25 26 26 27 27 28 29 29 28 28 29 29 30 31 31 32 32 32 33 33 34 35 36 37 39 40 41 42 42 43 45 46 48 48 49 50 50 50 49 48 47 47 46
41 41 41 41 42 43 45 45 45 43 41 41 41 40 37 34 34 35 36 35 33 30 27 25 24 23 23 23 22 23 23 23 24 24 23 23 24 24 25 25 26 26 26 26 26 25 25 25 25 26 27 27 28 29 30 31 32 32 33 33 33 33 34 35 37 38 40 41 41 42 43 44 46 47 48 49 50 50 50 49 48 47 46 45 44 45
42 42 42 41 41 43 45 45 44 42 39 38 38 37 36 36 35 34 34 33 30 27 25 24 24 24 24 24 24 24 25 25 26 26 26 26 27 27 27 28 27 27 25 24 24 24 24 24 24 25 26 28 29 30 31 32 32 32 33 33 34 35 36 38 39 40 41 42 42 43 45 46 48 49 50 50 50 50 49 47 45 44 43 43 43 45
41 41 41 41 41 43 44 43 42 39 37 37 35 33 30 29 27 25 25 25 26 26 26 26 26 26 26 26 27 27 27 27 27 27 27 26 25 26 27 27 28 27 26 25 25 25 25 26 27 28 28 29 29 30 31 31 32 33 33 34 35 37 38 39 40 41 42 43 44 45 47 48 49 50 50 50 50 49 47 45 43 42 41 41 43 45
Wind_Direction
197 199 202 203 202 202 200 193 195 199 199 205 201 199 205 200 201 212 218 224 225 225 230 235 244 248 244 247 253 257 252 241 239 240 237 237 240 239 238 238 237 237 239 237 234 235 235 236 236 235 236 237 237 238 240 242 244 248 252 252 254 257 260 262 265 268 268 269 271 272 274 276 276 277 280 283 287 289 291 293 293 294 293 292 292 293
201 205 206 205 201 203 204 195 193 197 201 211 205 202 208 201 201 209 211 217 223 225 233 239 245 250 251 250 250 253 253 244 236 239 239 236 238 240 240 238 237 237 237 237 236 236 237 238 240 240 240 242 243 244 245 247 248 250 253 255 256 258 261 265 267 267 269 270 271 272 272 274 275 277 280 283 286 288 289 290 290 289 289 290 291 293
204 209 210 206 201 202 203 197 198 205 210 217 210 206 209 207 205 209 213 219 225 228 233 240 247 250 251 251 249 248 253 254 245 238 238 238 238 240 241 239 238 239 238 238 237 238 240 241 244 246 246 247 248 250 250 251 252 252 256 259 260 261 261 264 267 268 271 272 272 273 274 275 278 280 282 285 287 287 287 286 285 285 286 288 289 291
205 210 209 207 205 203 203 201 202 208 211 214 211 210 212 213 212 212 217 223 228 233 236 242 251 253 252 252 250 249 250 253 251 242 238 239 239 240 242 240 239 241 241 241 240 240 243 245 247 248 248 249 249 252 254 256 257 257 259 261 262 264 264 264 266 269 271 273 274 277 278 280 283 285 286 287 287 286 285 283 282 283 284 285 286 287
210 211 205 203 206 204 206 208 202 202 209 208 206 210 214 215 218 219 223 226 228 233 236 240 252 256 255 254 251 250 249 247 247 245 240 238 240 241 242 242 240 240 240 241 242 243 244 246 247 248 248 249 250 252 255 257 260 260 259 260 261 264 266 266 267 269 271 275 277 279 281 283 285 286 287 287 286 285 284 284 284 283 283 283 284 286
213 213 203 199 204 201 205 211 204 203 211 211 204 204 212 215 218 221 222 223 222 226 232 233 246 263 259 257 254 250 248 247 245 244 242 239 239 239 241 243 241 239 239 240 243 243 244 245 244 246 246 248 250 251 253 254 257 259 259 259 260 262 264 266 267 268 271 275 278 280 280 282 282 283 284 284 284 285 286 287 288 287 285 284 284 286
210 211 204 200 203 199 202 210 207 206 209 220 216 207 211 216 218 222 221 219 218 221 231 228 226 250 257 257 261 253 249 248 245 243 242 240 239 238 239 241 241 240 240 240 241 243 244 243 242 244 244 245 247 249 251 252 254 257 258 258 259 260 262 263 264 265 269 274 276 278 278 279 279 280 281 282 284 286 287 288 289 289 287 286 286 287
209 207 204 200 200 201 204 208 208 207 208 226 230 216 215 215 215 223 220 217 218 218 224 224 221 235 246 242 247 255 252 250 245 242 242 241 241 240 239 240 241 241 240 239 239 240 241 242 242 242 243 244 246 247 249 251 252 253 255 255 256 258 259 260 262 264 268 271 272 274 276 277 279 280 281 283 284 286 287 288 289 289 288 288 288 289
207 205 204 201 200 203 207 207 206 207 209 221 226 214 215 217 219 223 217 212 212 213 216 216 211 222 249 242 236 244 246 247 246 239 240 243 244 244 243 242 241 240 240 239 239 239 240 241 242 243 244 245 247 247 247 248 250 251 252 254 255 256 257 259 261 263 265 267 268 271 274 278 280 281 282 283 284 286 287 289 289 288 289 289 289 290
209 205 205 207 209 211 211 209 206 204 206 208 198 199 206 212 211 205 208 209 203 210 224 221 212 212 262 248 237 241 244 248 251 248 245 245 245 245 244 243 242 239 239 239 240 240 240 240 241 243 243 245 246 248 248 248 250 251 253 254 255 256 257 259 261 262 263 264 267 270 274 277 279 281 282 284 285 288 290 290 288 287 288 289 290 292
213 210 211 213 213 216 215 212 209 206 206 203 184 186 193 197 194 186 191 196 190 218 224 214 208 208 249 258 240 243 249 251 253 253 252 249 247 247 245 243 242 241 240 239 239 239 239 239 240 242 243 245 247 248 249 250 251 253 254 255 256 257 258 259 260 260 262 264 267 270 273 276 278 280 282 284 287 288 288 287 285 285 286 289 291 294
212 211 213 215 214 216 215 212 211 210 209 207 196 187 183 169 172 180 179 182 185 227 211 207 206 207 220 229 224 239 251 252 251 254 255 252 248 247 246 245 244 243 242 241 240 239 238 240 240 242 244 245 247 248 249 250 251 252 253 254 256 257 258 259 260 261 262 265 268 271 273 274 275 276 279 281 282 282 282 282 283 285 287 290 292 293
208 212 213 215 214 213 212 208 207 209 209 207 200 189 179 147 146 178 175 182 206 210 197 203 203 212 232 236 228 231 242 249 253 257 258 254 250 248 248 248 246 245 244 243 243 242 240 240 240 241 243 245 247 248 249 250 250 250 249 251 253 255 257 259 261 262 264 266 268 268 268 268 269 270 273 274 275 275 277 279 281 284 286 288 289 290
197 209 212 212 211 210 210 206 202 202 202 202 199 191 179 149 129 187 182 177 207 212 197 194 197 225 244 247 242 235 236 243 249 252 253 251 250 248 247 247 246 246 245 245 244 244 244 241 240 240 241 244 246 248 249 250 249 249 248 248 250 253 256 258 260 262 262 262 261 260 259 259 261 262 264 266 267 269 273 276 279 282 284 286 288 289
195 206 211 210 209 207 207 208 208 206 200 198 200 198 189 177 172 177 174 179 170 159 179 182 192 232 232 241 247 241 241 243 244 248 252 254 254 251 248 246 245 244 244 244 244 244 245 244 243 242 241 243 246 248 250 250 249 248 247 248 250 251 252 253 254 253 252 252 250 249 249 249 251 254 255 258 261 265 270 274 278 282 285 287 290 292
203 213 214 210 210 208 205 208 210 206 199 193 193 199 198 193 191 178 167 179 165 141 176 193 208 231 224 230 240 240 246 245 243 247 250 254 255 252 251 247 246 246 244 244 244 244 245 245 245 244 243 243 245 247 249 249 248 245 244 244 243 243 242 241 241 240 239 239 239 239 240 243 246 248 251 254 259 265 272 277 282 286 289 292 295 297
198 206 212 209 207 207 207 208 208 204 199 193 192 199 201 198 197 181 156 163 160 149 210 209 221 237 238 243 241 239 251 253 247 247 246 249 250 249 250 249 247 247 245 245 244 243 244 244 244 242 241 241 242 243 245 244 241 237 232 229 227 227 227 228 229 229 231 232 235 238 241 245 248 251 255 259 264 271 277 283 288 292 296 298 301 302
195 195 201 204 202 201 203 204 205 206 203 197 195 199 200 202 209 201 174 135 154 161 218 208 222 235 232 240 245 243 250 255 254 252 248 246 247 248 248 248 247 249 251 250 245 241 239 238 238 237 235 234 234 234 233 231 226 221 217 216 217 219 221 224 227 228 231 234 238 243 247 251 255 259 264 268 273 279 284 289 294 298 301 303 305 305
200 192 188 199 201 199 199 199 199 201 203 202 201 202 200 202 209 204 194 154 172 200 239 214 220 228 229 236 245 245 248 254 255 253 250 248 248 249 249 250 253 254 253 248 239 233 231 229 228 226 222 219 216 215 216 216 216 217 217 219 220 222 224 226 229 231 235 240 244 249 253 258 263 267 272 277 283 287 291 294 298 302 306 308 308 309
201 195 182 194 199 196 196 198 197 197 200 201 203 204 202 204 206 204 206 201 165 175 222 218 210 233 244 248 253 253 253 256 255 252 251 252 250 250 250 251 253 253 248 239 231 226 221 218 213 206 202 202 205 211 217 219 221 223 223 225 225 226 228 230 234 238 242 247 251 255 259 264 270 275 280 285 288 292 295 298 301 306 310 313 313 314
200 201 192 188 193 194 197 201 202 202 201 200 201 202 203 205 201 204 216 216 206 192 195 198 229 254 257 256 254 253 254 255 254 252 252 254 253 250 250 249 247 246 242 234 227 222 216 209 202 199 201 208 214 220 224 224 225 226 226 228 228 230 232 236 241 246 250 253 256 261 267 272 278 282 286 289 292 295 298 302 305 309 314 316 316 316
202 204 199 188 190 195 201 205 206 207 207 207 207 206 207 207 201 193 214 215 216 220 196 169 237 245 202 199 222 240 253 255 254 253 251 252 253 253 255 253 246 241 238 234 228 222 217 211 208 210 216 221 224 226 227 228 228 229 230 231 233 235 238 243 249 253 256 258 262 268 275 281 285 288 290 293 296 300 303 305 308 311 314 317 317 315
208 205 197 190 194 199 203 206 207 208 212 213 214 213 213 212 209 206 204 207 212 218 219 222 284 229 173 147 185 240 275 280 276 267 258 255 255 256 257 254 246 238 233 232 231 227 223 220 220 223 226 229 231 231 232 233 233 235 236 236 238 240 244 250 256 260 262 264 269 276 282 286 289 291 295 298 301 304 306 308 310 312 314 316 316 314
209 207 193 177 187 200 204 208 209 209 213 215 217 218 217 216 216 215 215 214 208 212 216 214 254 243 236 238 250 260 273 278 275 270 266 264 262 262 261 254 247 240 234 231 232 231 229 228 228 230 233 234 236 237 238 240 241 242 242 242 243 244 248 255 261 265 267 270 275 280 284 287 290 294 300 304 307 309 311 312 313 315 316 316 315 312
204 203 189 165 147 195 206 212 212 212 215 217 219 220 218 218 218 216 217 222 217 219 217 204 232 249 249 252 256 259 263 262 259 261 264 266 266 266 265 258 250 244 239 235 234 233 232 232 233 236 239 241 244 246 247 247 248 247 247 247 247 248 252 258 264 267 270 274 279 283 285 289 294 299 304 308 312 315 315 314 315 316 315 314 312 309
206 202 197 186 163 174 197 208 212 212 214 216 219 220 218 219 220 219 220 220 225 229 219 212 234 250 251 253 255 256 257 256 255 258 259 260 262 262 261 260 255 249 244 240 238 237 236 237 240 242 245 248 250 252 253 252 251 251 251 250 251 252 256 261 267 271 274 279 283 286 289 294 299 303 305 309 313 315 314 313 313 314 313 311 308 306
210 211 213 210 209 213 217 219 220 219 216 218 222 224 222 222 223 222 219 219 227 231 225 228 241 250 250 250 253 258 263 264 261 258 259 262 266 263 259 259 257 252 247 243 241 241 243 244 247 250 252 253 254 255 255 254 253 253 254 254 255 257 261 266 272 276 280 285 287 290 293 297 300 302 304 307 310 311 311 309 310 311 309 307 304 301
211 213 218 220 223 227 230 232 232 230 229 230 231 231 228 225 223 220 220 226 231 230 232 239 244 249 252 251 253 258 263 265 263 260 261 266 269 266 261 259 257 252 248 245 244 246 248 251 253 255 256 257 258 258 258 256 255 256 256 257 259 261 265 270 276 281 286 289 290 292 295 297 299 300 302 304 307 309 308 307 308 308 305 302 299 297
213 216 219 222 225 228 229 232 234 234 236 239 240 240 236 231 226 223 227 235 234 230 239 248 248 252 257 258 259 262 261 260 261 260 261 267 268 261 258 259 258 255 252 250 252 253 253 255 256 258 259 260 260 261 260 259 258 258 259 260 260 263 267 272 279 286 289 290 291 293 295 298 299 300 301 303 306 308 308 306 306 305 301 298 296 295
213 218 221 222 225 226 225 227 231 234 237 239 241 244 243 240 237 236 239 245 242 239 246 253 253 255 259 261 263 265 264 261 260 260 260 264 264 257 254 256 255 254 254 255 256 257 256 256 256 257 259 260 262 262 262 261 260 259 260 260 262 264 268 273 281 287 289 291 292 295 298 299 300 301 302 304 306 307 307 305 304 301 298 295 294 294
214 217 219 222 224 225 225 227 229 232 235 238 239 240 241 243 244 244 245 247 245 245 249 252 254 256 258 259 261 264 264 262 263 265 264 261 258 254 252 252 249 248 252 257 260 260 259 256 255 257 260 262 264 264 262 261 259 259 260 261 262 264 267 273 280 285 289 292 295 298 299 301 302 302 302 304 305 305 304 303 300 297 294 293 293 293
216 211 213 219 220 223 226 227 229 232 236 239 238 237 239 240 241 242 242 243 243 246 250 251 251 253 253 255 258 261 261 262 264 266 261 254 253 254 251 248 247 249 256 260 260 260 259 256 255 259 265 267 267 265 263 261 260 259 260 261 262 264 267 271 278 284 288 292 296 298 300 302 302 302 302 302 303 302 301 299 296 293 292 291 291 292
219 215 212 212 214 223 226 226 231 234 236 239 239 241 243 244 246 247 247 248 248 249 251 252 252 254 258 258 260 260 261 262 264 264 261 256 259 262 259 254 252 255 260 259 257 257 256 252 253 261 268 270 269 266 264 262 260 259 259 260 262 264 267 271 279 284 288 292 295 297 300 301 301 299 299 300 300 299 297 295 292 290 289 289 289 291
221 223 224 223 225 234 235 233 234 231 231 243 246 247 248 248 250 251 253 255 255 253 253 255 257 259 261 261 261 262 263 265 268 269 268 266 266 267 263 259 257 259 259 255 252 251 249 247 252 262 269 272 270 267 264 262 261 260 260 261 263 265 267 273 280 285 288 292 295 297 299 300 298 297 297 297 296 294 292 290 288 287 287 287 289 290
226 225 228 230 233 240 241 232 223 223 240 249 252 252 252 253 252 254 256 257 256 255 256 257 258 258 258 260 263 265 266 269 271 272 270 268 266 262 258 254 253 253 252 251 250 246 242 246 256 265 270 271 270 267 264 263 261 261 260 261 263 265 268 273 281 286 289 292 294 295 297 297 296 295 295 294 292 290 287 286 285 285 286 288 289 291
227 227 227 226 226 232 226 207 210 243 250 253 255 252 250 250 249 249 252 253 253 254 256 257 258 258 257 257 262 266 268 269 270 268 266 265 263 260 256 252 249 247 247 249 249 245 245 253 262 266 268 269 269 267 264 261 260 259 259 261 263 265 269 274 280 285 290 292 293 293 294 294 293 292 292 290 288 286 285 284 285 286 287 289 292 294
222 225 224 218 218 223 218 213 229 250 258 256 254 251 249 249 249 250 254 258 259 258 258 260 261 260 257 255 258 263 265 266 268 266 264 263 263 261 259 256 253 250 246 245 245 246 249 255 259 261 262 264 265 264 262 260 259 259 260 261 264 267 271 275 280 285 289 290 290 290 291 291 290 290 288 286 284 283 283 284 286 288 289 291 294 295
216 220 221 214 214 219 218 219 227 239 254 252 250 252 255 256 258 259 260 263 262 258 258 260 261 261 260 258 259 263 265 265 266 265 265 266 267 267 265 261 258 255 252 248 246 247 248 250 253 255 257 261 262 262 260 260 260 260 261 263 265 269 272 276 281 284 286 287 287 287 288 289 289 287 285 283 282 283 284 286 288 291 293 295 296 297
213 216 218 213 210 211 210 213 208 219 245 252 254 257 259 258 258 255 253 258 259 257 257 259 259 260 260 260 262 264 264 263 264 266 267 269 270 268 265 262 259 257 255 253 251 249 248 249 250 252 254 257 259 260 260 260 260 260 261 263 267 270 274 278 281 283 284 285 285 286 287 288 287 285 282 282 283 284 287 289 292 295 297 298 299 300
212 211 210 207 209 209 209 214 221 230 244 253 257 257 257 259 254 229 228 254 261 262 262 260 261 263 262 261 261 261 261 263 267 270 270 269 267 265 261 259 257 256 255 253 252 251 250 250 250 252 254 256 258 259 260 260 260 260 262 264 268 272 276 279 280 281 283 283 284 285 286 285 283 281 281 282 285 287 290 293 296 298 299 300 300 301
209 210 208 208 212 214 212 217 229 238 243 249 253 254 256 254 225 207 226 252 261 266 269 269 272 272 265 259 256 257 261 265 267 268 268 265 262 259 255 254 253 253 253 253 253 252 251 251 251 252 254 256 258 259 259 259 260 261 263 267 270 273 275 276 278 279 281 282 283 283 282 280 279 279 281 284 287 290 293 296 298 299 300 301 301 302
206 207 209 211 213 215 218 223 236 248 247 245 246 249 245 224 210 222 244 256 260 267 272 276 280 273 261 252 248 250 255 256 256 257 259 258 255 252 250 251 250 250 251 252 252 252 251 251 252 253 254 256 257 258 259 259 260 262 265 268 270 272 273 275 277 279 280 281 280 279 278 277 278 281 284 286 290 293 296 298 299 300 301 302 303 303
213 207 205 211 213 214 219 221 230 247 247 242 237 235 232 228 232 245 257 259 260 265 268 272 273 267 258 251 247 245 247 248 250 254 258 260 260 259 258 258 257 256 255 254 254 253 253 253 254 255 256 256 256 257 258 260 262 264 266 267 268 270 273 275 277 278 278 277 276 275 276 278 281 284 287 290 294 296 297 299 300 301 303 304 305 306
220 214 211 215 214 209 208 213 225 239 246 247 245 243 243 245 248 251 253 253 257 262 264 267 269 266 263 259 255 255 256 257 259 263 265 267 266 264 262 261 260 259 257 256 256 255 255 255 255 255 255 255 256 257 258 260 262 263 264 266 268 271 273 275 276 275 275 274 274 276 278 281 284 288 291 293 295 296 298 300 301 303 305 307 308 308
223 224 224 226 225 222 224 230 238 243 246 250 253 253 254 253 251 251 252 254 255 257 259 261 261 262 266 268 268 268 267 266 265 265 265 264 262 260 260 259 258 257 255 254 254 254 255 255 255 254 254 254 254 256 256 258 260 261 264 266 268 270 272 272 273 272 272 273 275 278 281 284 287 290 292 294 295 297 299 302 304 306 307 308 308 308
230 231 232 234 235 237 240 242 244 244 246 250 253 254 253 251 249 248 249 248 249 250 253 256 259 264 269 272 271 268 264 261 260 260 261 261 259 257 256 256 255 255 254 253 252 252 253 255 255 256 255 255 255 255 256 258 260 262 264 266 268 269 270 270 270 271 272 275 277 281 284 287 289 291 293 295 298 300 302 304 306 308 308 308 308 308
236 236 236 237 237 239 242 243 243 245 249 252 253 253 253 252 250 248 246 248 253 257 261 264 266 268 269 267 264 258 253 253 256 259 261 262 259 257 256 257 258 258 258 257 256 254 254 254 255 257 258 258 259 259 259 260 261 263 265 267 268 268 268 269 270 272 274 277 280 283 286 288 290 292 295 298 301 303 305 306 307 308 307 307 307 307
239 239 238 238 240 242 245 247 247 248 250 250 250 251 252 251 250 251 255 259 263 266 268 268 266 264 262 260 257 253 252 254 256 258 259 258 258 259 259 260 261 261 261 261 259 257 255 253 253 253 255 256 258 259 260 262 263 265 267 268 268 269 269 270 272 275 277 280 282 285 287 289 292 295 298 300 302 303 305 306 306 307 307 307 308 308
240 239 238 239 240 241 244 247 248 248 248 248 248 249 250 251 253 256 260 263 265 266 265 262 259 257 255 254 253 252 252 253 254 256 257 258 259 261 262 262 262 261 259 257 256 254 252 249 247 248 250 252 256 258 261 262 264 266 267 268 269 270 271 272 275 277 279 282 284 286 289 291 294 296 298 300 302 303 305 305 306 306 307 307 308 309
236 236 238 238 235 237 240 243 244 245 246 247 248 249 250 251 253 255 255 257 258 257 256 254 253 252 253 254 255 255 255 256 257 258 258 259 259 259 258 258 258 257 255 252 250 249 249 250 252 255 257 258 259 260 260 262 263 264 266 267 269 270 271 274 276 278 280 282 285 288 290 292 295 297 298 300 302 303 304 304 305 306 307 307 309 311
231 233 235 234 234 237 240 241 241 242 243 245 247 248 247 247 247 246 245 246 247 249 251 253 254 256 257 258 259 260 259 259 259 259 259 258 255 253 251 250 251 252 253 252 253 255 258 261 263 264 263 262 260 259 259 260 261 262 264 266 267 269 271 273 275 278 281 283 286 289 291 293 296 298 299 301 302 302 302 302 303 305 306 308 311 313
Height
3123 3123 3123 3123 3126 3130 3134 3137 3141 3145 3148 3150 3151 3153 3153 3154 3155 3155 3156 3158 3159 3161 3162 3164 3165 3166 3168 3169 3169 3169 3170 3171 3172 3173 3174 3175 3176 3177 3178 3179 3180 3180 3181 3183 3184 3185 3186 3187 3187 3189 3190 3191 3192 3193 3193 3194 3195 3196 3197 3198 3199 3199 3200 3201 3201 3202 3203 3203 3204 3204 3204 3204 3204 3204 3205 3205 3205 3205 3205 3205 3205 3205 3204 3204 3204 3204
3122 3120 3120 3123 3128 3132 3135 3139 3142 3144 3147 3149 3150 3152 3152 3153 3153 3153 3155 3156 3157 3160 3161 3163 3163 3164 3165 3167 3167 3167 3167 3168 3170 3171 3172 3173 3174 3176 3177 3178 3178 3179 3180 3181 3182 3183 3184 3185 3186 3187 3188 3189 3190 3191 3192 3193 3194 3195 3195 3196 3197 3198 3198 3199 3200 3200 3201 3201 3202 3202 3203 3203 3203 3203 3203 3204 3204 3204 3204 3204 3203 3202 3202 3202 3201 3201
3118 3118 3120 3125 3129 3132 3136 3139 3141 3143 3145 3147 3148 3150 3150 3150 3151 3152 3154 3155 3157 3159 3160 3161 3161 3162 3163 3164 3165 3166 3165 3166 3168 3170 3170 3171 3172 3174 3175 3176 3177 3177 3178 3179 3181 3181 3182 3183 3184 3185 3187 3188 3189 3189 3190 3191 3192 3193 3194 3195 3195 3196 3197 3197 3198 3198 3199 3199 3200 3200 3200 3201 3201 3201 3202 3202 3202 3202 3202 3202 3201 3200 3200 3200 3200 3199
3115 3116 3121 3125 3128 3132 3134 3137 3139 3141 3143 3145 3146 3147 3147 3147 3149 3151 3153 3154 3156 3158 3158 3159 3159 3159 3160 3161 3162 3163 3164 3165 3166 3167 3169 3169 3171 3172 3173 3174 3175 3176 3177 3178 3179 3180 3181 3181 3182 3184 3185 3186 3187 3188 3189 3190 3190 3191 3192 3193 3193 3194 3195 3195 3196 3196 3197 3197 3198 3198 3198 3199 3199 3200 3200 3200 3200 3200 3200 3199 3199 3198 3198 3198 3198 3198
3115 3117 3121 3125 3127 3130 3133 3135 3137 3139 3141 3143 3144 3145 3145 3146 3148 3150 3151 3153 3155 3156 3156 3157 3158 3156 3157 3158 3159 3161 3162 3163 3164 3165 3166 3168 3169 3170 3171 3172 3173 3174 3175 3176 3177 3178 3179 3180 3181 3182 3183 3184 3185 3186 3187 3188 3188 3189 3190 3191 3191 3192 3192 3193 3194 3194 3194 3195 3196 3197 3197 3197 3198 3198 3198 3198 3198 3197 3197 3197 3196 3196 3196 3196 3196 3195
3116 3118 3121 3124 3126 3129 3132 3133 3136 3138 3140 3141 3142 3143 3144 3145 3147 3149 3150 3152 3153 3153 3154 3156 3157 3154 3154 3156 3156 3158 3159 3160 3162 3163 3164 3166 3167 3168 3169 3170 3171 3172 3173 3174 3175 3176 3177 3178 3179 3180 3181 3182 3183 3184 3185 3186 3186 3187 3188 3189 3189 3190 3190 3191 3192 3192 3193 3193 3194 3195 3195 3196 3196 3196 3196 3195 3195 3195 3195 3195 3194 3194 3193 3193 3193 3193
3116 3118 3120 3123 3125 3128 3130 3132 3134 3137 3139 3140 3141 3143 3143 3144 3146 3147 3149 3151 3150 3151 3152 3154 3155 3153 3152 3154 3154 3155 3156 3157 3159 3160 3162 3163 3164 3166 3167 3168 3169 3170 3171 3172 3173 3174 3175 3176 3177 3178 3179 3180 3181 3182 3183 3184 3184 3185 3186 3187 3187 3188 3188 3189 3190 3191 3192 3192 3192 3193 3193 3193 3193 3194 3193 3193 3193 3193 3193 3193 3192 3192 3191 3191 3191 3190
3114 3116 3119 3121 3124 3126 3128 3130 3133 3136 3138 3139 3139 3142 3142 3142 3145 3146 3148 3149 3148 3149 3151 3151 3153 3152 3151 3152 3153 3153 3154 3155 3156 3158 3159 3160 3162 3163 3164 3166 3167 3168 3169 3170 3171 3171 3172 3174 3175 3176 3177 3178 3179 3180 3181 3182 3182 3183 3184 3184 3185 3186 3187 3187 3188 3189 3190 3190 3191 3191 3191 3191 3191 3191 3191 3191 3191 3191 3191 3191 3190 3190 3189 3189 3188 3188
3113 3115 3117 3120 3123 3125 3126 3129 3132 3135 3137 3137 3138 3140 3140 3142 3144 3145 3147 3147 3147 3148 3149 3149 3151 3151 3149 3149 3152 3152 3152 3153 3154 3156 3157 3158 3159 3161 3162 3163 3164 3166 3167 3167 3168 3169 3170 3171 3172 3173 3175 3176 3177 3178 3179 3179 3180 3181 3181 3182 3183 3184 3185 3186 3187 3187 3188 3188 3189 3189 3189 3189 3189 3189 3189 3189 3189 3188 3188 3188 3188 3188 3187 3187 3187 3186
3113 3115 3117 3119 3122 3123 3126 3128 3131 3133 3135 3136 3137 3138 3139 3141 3143 3144 3145 3146 3147 3147 3146 3147 3148 3149 3147 3146 3149 3149 3149 3150 3152 3154 3155 3156 3157 3158 3159 3161 3162 3163 3164 3165 3166 3167 3168 3169 3170 3171 3172 3173 3174 3175 3176 3177 3178 3178 3179 3180 3181 3182 3183 3184 3185 3185 3186 3186 3187 3187 3187 3187 3187 3187 3186 3186 3186 3186 3186 3186 3186 3186 3185 3185 3185 3184
3113 3115 3116 3118 3120 3122 3125 3127 3130 3132 3134 3135 3136 3136 3138 3140 3141 3143 3143 3144 3146 3145 3144 3145 3146 3148 3146 3144 3145 3146 3146 3148 3150 3151 3152 3153 3155 3156 3157 3158 3159 3160 3161 3162 3163 3164 3165 3166 3167 3168 3169 3170 3171 3172 3173 3174 3175 3176 3177 3178 3179 3180 3181 3182 3182 3183 3184 3184 3184 3184 3184 3184 3184 3184 3184 3184 3184 3184 3184 3184 3184 3184 3184 3183 3183 3183
3111 3113 3114 3116 3118 3120 3123 3125 3128 3130 3132 3133 3134 3135 3137 3139 3141 3142 3143 3144 3144 3143 3142 3144 3145 3147 3145 3142 3143 3144 3145 3146 3147 3148 3149 3151 3153 3153 3154 3155 3157 3158 3158 3159 3161 3162 3163 3164 3165 3166 3167 3168 3168 3170 3171 3172 3173 3174 3174 3176 3177 3178 3179 3179 3180 3181 3181 3181 3182 3182 3182 3182 3182 3182 3182 3182 3182 3182 3182 3182 3182 3182 3182 3182 3181 3181
3109 3111 3112 3114 3116 3118 3120 3123 3126 3128 3129 3131 3132 3133 3135 3138 3141 3142 3142 3142 3142 3141 3141 3142 3144 3144 3141 3140 3143 3143 3143 3144 3145 3146 3147 3149 3150 3151 3152 3153 3154 3155 3156 3157 3158 3159 3160 3161 3162 3163 3164 3165 3166 3167 3168 3169 3170 3171 3172 3173 3174 3175 3176 3177 3178 3178 3179 3179 3179 3179 3179 3179 3179 3180 3180 3181 3181 3181 3181 3181 3181 3181 3180 3180 3180 3179
3107 3109 3110 3111 3113 3115 3118 3120 3122 3123 3126 3128 3129 3130 3132 3135 3139 3141 3140 3140 3140 3140 3140 3142 3144 3141 3137 3138 3140 3141 3141 3142 3143 3144 3145 3146 3148 3149 3150 3150 3151 3152 3153 3154 3155 3156 3158 3159 3160 3161 3162 3163 3163 3164 3165 3166 3167 3168 3170 3171 3172 3173 3174 3175 3176 3176 3176 3176 3176 3176 3176 3177 3177 3178 3179 3179 3179 3179 3179 3179 3179 3179 3178 3178 3177 3177
3105 3106 3107 3109 3111 3113 3116 3118 3119 3121 3124 3126 3128 3129 3130 3131 3134 3136 3136 3137 3137 3138 3140 3142 3141 3137 3134 3135 3136 3137 3138 3139 3141 3142 3143 3144 3145 3146 3147 3148 3148 3149 3150 3152 3153 3154 3155 3156 3157 3158 3159 3160 3161 3161 3162 3163 3165 3166 3167 3169 3170 3171 3172 3173 3173 3174 3174 3174 3174 3174 3174 3175 3176 3176 3177 3177 3177 3178 3178 3178 3177 3177 3176 3175 3175 3174
3103 3104 3106 3108 3110 3113 3115 3117 3119 3121 3123 3125 3127 3128 3129 3129 3131 3132 3133 3133 3134 3136 3138 3138 3136 3132 3132 3134 3134 3135 3135 3137 3139 3140 3141 3142 3142 3143 3144 3145 3146 3147 3148 3149 3150 3151 3152 3153 3154 3155 3156 3157 3158 3159 3160 3161 3163 3164 3165 3166 3168 3169 3169 3170 3171 3172 3172 3172 3172 3173 3173 3173 3174 3174 3175 3175 3175 3175 3175 3175 3175 3174 3173 3173 3172 3171
3099 3102 3104 3106 3109 3111 3113 3115 3117 3119 3121 3123 3124 3125 3126 3128 3129 3130 3132 3132 3133 3135 3134 3132 3131 3131 3132 3132 3132 3133 3134 3135 3137 3138 3139 3139 3139 3141 3142 3143 3144 3145 3146 3147 3148 3149 3150 3151 3152 3153 3154 3155 3156 3157 3158 3160 3161 3162 3164 3164 3165 3166 3167 3168 3169 3169 3170 3170 3171 3171 3172 3172 3172 3172 3173 3173 3173 3173 3173 3172 3172 3171 3170 3170 3169 3168
3096 3099 3102 3104 3106 3108 3111 3113 3115 3116 3118 3120 3121 3123 3126 3128 3129 3129 3131 3132 3133 3133 3131 3129 3129 3129 3130 3129 3129 3131 3132 3133 3135 3136 3137 3137 3137 3138 3139 3140 3142 3142 3144 3145 3146 3147 3148 3149 3150 3151 3152 3153 3155 3156 3157 3158 3160 3161 3162 3163 3163 3164 3165 3166 3167 3167 3168 3169 3169 3170 3170 3170 3170 3171 3171 3170 3170 3170 3170 3169 3169 3168 3167 3166 3165 3164
3094 3097 3100 3102 3104 3107 3109 3111 3113 3114 3116 3117 3119 3121 3123 3125 3126 3127 3128 3130 3131 3131 3129 3127 3127 3127 3127 3126 3127 3129 3130 3131 3133 3133 3134 3135 3136 3137 3137 3138 3139 3141 3142 3143 3144 3145 3146 3147 3148 3149 3151 3152 3153 3155 3156 3157 3158 3159 3160 3161 3162 3162 3163 3164 3165 3166 3166 3167 3168 3168 3168 3168 3168 3168 3168 3168 3167 3167 3167 3166 3165 3165 3164 3163 3162 3160
3091 3094 3098 3100 3102 3105 3107 3108 3109 3111 3113 3116 3117 3119 3121 3122 3123 3124 3125 3126 3127 3128 3127 3126 3126 3124 3124 3125 3125 3127 3129 3130 3131 3131 3132 3133 3134 3135 3136 3137 3138 3139 3140 3141 3142 3144 3145 3146 3147 3148 3150 3151 3152 3153 3155 3156 3157 3158 3159 3159 3160 3161 3161 3162 3163 3164 3165 3165 3166 3166 3166 3166 3166 3165 3165 3165 3164 3164 3164 3163 3162 3161 3160 3159 3158 3156
3090 3092 3095 3098 3100 3103 3104 3105 3106 3108 3110 3112 3114 3115 3117 3119 3121 3122 3123 3123 3124 3125 3125 3125 3125 3122 3121 3123 3124 3125 3127 3128 3129 3130 3131 3132 3132 3133 3135 3136 3137 3138 3139 3140 3142 3143 3144 3145 3146 3147 3149 3150 3151 3152 3153 3154 3155 3156 3157 3158 3158 3159 3160 3160 3161 3162 3162 3163 3163 3163 3163 3163 3163 3163 3162 3162 3162 3161 3160 3160 3158 3157 3156 3155 3153 3152
3088 3090 3093 3095 3098 3099 3101 3102 3104 3107 3108 3110 3111 3112 3114 3116 3118 3120 3121 3121 3122 3122 3122 3123 3123 3121 3120 3121 3122 3123 3125 3126 3127 3128 3129 3130 3131 3132 3133 3134 3136 3137 3138 3139 3140 3142 3143 3144 3145 3146 3147 3148 3149 3150 3151 3152 3153 3154 3155 3156 3157 3158 3158 3159 3159 3160 3160 3160 3161 3161 3161 3161 3160 3160 3160 3159 3158 3158 3157 3156 3155 3153 3152 3151 3150 3149
3086 3089 3091 3093 3095 3097 3099 3101 3103 3104 3106 3108 3110 3111 3113 3115 3117 3118 3118 3118 3120 3121 3121 3123 3122 3120 3120 3121 3122 3123 3124 3125 3126 3127 3127 3128 3129 3130 3132 3133 3134 3135 3137 3138 3139 3140 3141 3142 3144 3144 3145 3146 3147 3148 3149 3150 3152 3153 3154 3155 3155 3156 3156 3157 3157 3157 3158 3158 3158 3158 3158 3158 3158 3157 3157 3156 3155 3154 3153 3152 3151 3150 3149 3147 3146 3145
3085 3087 3089 3092 3094 3096 3097 3099 3101 3103 3104 3106 3107 3109 3111 3112 3114 3116 3117 3117 3118 3119 3120 3122 3121 3118 3119 3121 3121 3123 3124 3124 3125 3125 3126 3126 3127 3128 3130 3130 3132 3133 3135 3136 3137 3139 3140 3141 3142 3143 3144 3145 3146 3147 3148 3149 3150 3151 3152 3153 3153 3154 3154 3154 3155 3155 3155 3155 3155 3155 3155 3155 3154 3154 3153 3152 3152 3151 3150 3149 3147 3146 3145 3144 3143 3141
3081 3083 3085 3089 3093 3096 3097 3099 3099 3100 3101 3102 3103 3106 3108 3109 3112 3115 3116 3117 3117 3117 3118 3120 3118 3115 3117 3119 3120 3121 3123 3123 3124 3124 3124 3125 3125 3127 3128 3128 3130 3131 3133 3134 3136 3137 3138 3139 3140 3142 3142 3143 3144 3145 3146 3147 3148 3149 3150 3151 3151 3151 3152 3152 3152 3152 3152 3153 3152 3152 3152 3151 3151 3150 3149 3148 3147 3146 3146 3145 3144 3143 3141 3140 3139 3138
3079 3080 3081 3084 3088 3091 3092 3092 3093 3094 3096 3098 3100 3102 3105 3108 3110 3112 3114 3116 3115 3115 3116 3116 3114 3113 3115 3117 3117 3119 3121 3121 3122 3123 3123 3123 3124 3125 3126 3126 3128 3129 3131 3132 3134 3135 3136 3138 3139 3140 3141 3142 3142 3143 3144 3145 3145 3146 3147 3148 3148 3149 3149 3149 3149 3149 3150 3149 3149 3149 3148 3147 3146 3145 3145 3144 3143 3143 3142 3142 3141 3139 3138 3137 3136 3134
3077 3078 3078 3080 3081 3083 3085 3087 3089 3091 3093 3096 3097 3099 3102 3104 3106 3109 3111 3111 3111 3112 3112 3112 3111 3111 3112 3114 3116 3117 3119 3120 3121 3121 3122 3122 3123 3123 3124 3125 3126 3127 3129 3130 3132 3133 3134 3136 3137 3138 3138 3139 3140 3140 3141 3142 3143 3143 3144 3145 3145 3146 3146 3146 3146 3146 3146 3146 3145 3145 3144 3143 3142 3142 3141 3141 3140 3140 3140 3139 3138 3136 3135 3134 3132 3131
3074 3074 3076 3078 3079 3081 3084 3086 3088 3090 3091 3093 3095 3096 3098 3100 3103 3105 3106 3106 3108 3110 3108 3108 3109 3108 3108 3111 3114 3115 3117 3118 3119 3120 3120 3121 3122 3122 3123 3123 3124 3125 3126 3128 3129 3131 3132 3133 3134 3135 3135 3136 3137 3137 3138 3139 3139 3140 3141 3142 3142 3142 3143 3143 3143 3143 3142 3142 3141 3141 3140 3139 3139 3139 3138 3138 3137 3137 3136 3135 3134 3133 3132 3130 3128 3127
3070 3071 3073 3076 3078 3080 3082 3084 3086 3088 3089 3091 3093 3094 3096 3098 3099 3101 3102 3103 3105 3106 3104 3105 3106 3104 3105 3109 3112 3113 3115 3116 3117 3118 3118 3119 3120 3120 3121 3121 3122 3123 3124 3126 3127 3129 3130 3130 3131 3132 3133 3133 3134 3135 3135 3136 3136 3137 3138 3138 3139 3139 3139 3139 3139 3139 3138 3138 3138 3137 3137 3136 3135 3135 3135 3134 3134 3133 3132 3131 3130 3129 3127 3126 3124 3123
3067 3069 3071 3074 3076 3078 3080 3082 3084 3086 3087 3089 3090 3092 3094 3095 3097 3098 3100 3101 3102 3101 3101 3102 3103 3101 3103 3107 3109 3110 3112 3113 3114 3115 3116 3117 3118 3118 3119 3119 3120 3121 3122 3124 3125 3126 3127 3128 3128 3129 3130 3130 3131 3132 3132 3133 3133 3134 3135 3135 3135 3135 3135 3135 3135 3135 3135 3134 3134 3133 3133 3132 3131 3131 3131 3130 3129 3129 3128 3127 3126 3124 3123 3121 3120 3118
3065 3067 3069 3072 3074 3076 3077 3080 3082 3083 3084 3086 3088 3090 3092 3093 3095 3096 3096 3097 3097 3097 3098 3100 3099 3098 3101 3105 3106 3107 3108 3109 3111 3112 3113 3114 3115 3115 3116 3117 3118 3119 3120 3121 3123 3123 3124 3125 3125 3126 3126 3127 3128 3128 3129 3129 3130 3131 3131 3131 3132 3132 3132 3132 3131 3131 3131 3130 3130 3129 3129 3128 3128 3127 3126 3126 3125 3125 3124 3123 3121 3120 3118 3117 3115 3114
3064 3066 3067 3070 3072 3073 3075 3078 3079 3080 3082 3083 3084 3086 3088 3089 3090 3090 3091 3092 3093 3094 3096 3097 3095 3093 3097 3102 3103 3103 3104 3105 3107 3109 3110 3111 3112 3113 3114 3115 3116 3117 3118 3119 3120 3121 3121 3122 3122 3123 3123 3124 3124 3125 3125 3126 3126 3127 3128 3128 3128 3128 3128 3128 3127 3127 3127 3126 3125 3125 3124 3124 3123 3123 3122 3122 3121 3120 3120 3118 3117 3115 3114 3113 3111 3110
3063 3065 3067 3069 3070 3071 3073 3075 3076 3079 3081 3078 3078 3081 3083 3084 3085 3087 3088 3089 3091 3092 3092 3091 3090 3091 3095 3099 3099 3099 3100 3101 3103 3105 3107 3108 3109 3110 3111 3112 3113 3114 3115 3116 3116 3117 3118 3118 3119 3119 3120 3121 3121 3121 3122 3122 3123 3123 3124 3124 3124 3124 3124 3123 3123 3123 3122 3122 3121 3120 3120 3119 3119 3119 3118 3117 3117 3116 3115 3114 3113 3111 3110 3108 3107 3105
3062 3064 3066 3068 3069 3070 3071 3073 3076 3078 3075 3071 3073 3077 3080 3081 3082 3084 3084 3085 3087 3087 3087 3087 3087 3090 3093 3094 3094 3095 3096 3098 3100 3102 3104 3105 3105 3106 3107 3108 3110 3111 3112 3112 3112 3113 3114 3115 3115 3116 3117 3117 3117 3118 3118 3118 3119 3119 3119 3120 3120 3120 3120 3119 3119 3119 3118 3117 3117 3116 3115 3115 3115 3114 3114 3113 3112 3111 3110 3109 3108 3107 3105 3104 3102 3101
3058 3061 3064 3066 3068 3069 3069 3072 3075 3072 3067 3066 3071 3075 3076 3078 3080 3081 3079 3079 3080 3082 3082 3083 3084 3086 3088 3089 3091 3092 3093 3094 3096 3098 3099 3100 3101 3101 3102 3104 3105 3106 3107 3108 3108 3109 3110 3111 3112 3112 3113 3113 3113 3113 3114 3114 3114 3115 3115 3115 3115 3115 3115 3115 3115 3114 3113 3113 3112 3112 3111 3110 3110 3110 3109 3108 3108 3107 3106 3104 3103 3102 3100 3099 3097 3096
3053 3057 3060 3063 3065 3067 3068 3069 3069 3065 3062 3065 3068 3069 3071 3073 3075 3075 3072 3070 3074 3077 3078 3079 3079 3081 3084 3086 3087 3088 3089 3090 3092 3093 3095 3096 3096 3097 3098 3100 3101 3102 3102 3104 3105 3106 3107 3108 3108 3108 3109 3109 3109 3109 3109 3109 3110 3110 3111 3111 3111 3111 3111 3111 3111 3110 3109 3108 3108 3107 3107 3106 3106 3105 3104 3104 3103 3102 3101 3099 3098 3097 3095 3094 3092 3091
3049 3052 3055 3059 3060 3062 3063 3063 3064 3065 3062 3059 3059 3061 3064 3066 3069 3070 3067 3065 3070 3074 3074 3074 3075 3076 3080 3082 3084 3084 3085 3086 3087 3087 3089 3091 3092 3093 3095 3096 3097 3097 3098 3099 3100 3101 3102 3103 3103 3104 3104 3104 3104 3104 3104 3105 3106 3106 3107 3107 3107 3107 3107 3107 3106 3105 3104 3104 3104 3103 3102 3101 3101 3100 3100 3099 3098 3097 3096 3094 3093 3092 3091 3089 3088 3086
3045 3048 3051 3054 3055 3057 3060 3061 3065 3065 3056 3048 3050 3055 3059 3063 3066 3069 3067 3062 3063 3068 3069 3069 3070 3072 3075 3078 3080 3080 3081 3081 3080 3081 3084 3087 3088 3089 3091 3091 3092 3092 3093 3094 3095 3096 3097 3098 3098 3099 3099 3099 3099 3100 3100 3101 3101 3102 3102 3103 3103 3103 3103 3102 3101 3101 3100 3099 3099 3099 3097 3096 3096 3095 3095 3094 3093 3092 3091 3090 3088 3087 3086 3084 3082 3081
3043 3045 3049 3051 3052 3054 3056 3056 3058 3056 3047 3042 3048 3054 3057 3060 3063 3067 3065 3057 3055 3062 3065 3065 3066 3068 3071 3074 3075 3076 3077 3075 3073 3076 3081 3083 3084 3085 3085 3085 3086 3087 3088 3089 3090 3091 3092 3093 3094 3094 3094 3094 3095 3095 3096 3096 3097 3097 3098 3098 3098 3098 3098 3097 3097 3096 3095 3095 3094 3093 3092 3092 3091 3091 3090 3089 3088 3087 3086 3085 3083 3082 3080 3078 3076 3075
3040 3043 3045 3048 3048 3049 3051 3051 3051 3048 3043 3043 3048 3050 3052 3056 3060 3064 3060 3052 3050 3057 3061 3061 3063 3065 3068 3070 3071 3071 3071 3070 3070 3073 3076 3078 3079 3080 3080 3080 3081 3082 3082 3083 3084 3086 3087 3088 3088 3089 3089 3089 3090 3090 3091 3092 3092 3093 3093 3093 3094 3093 3093 3092 3092 3091 3090 3090 3089 3089 3088 3087 3087 3086 3085 3084 3083 3082 3081 3079 3078 3076 3074 3073 3071 3069
3037 3039 3041 3043 3044 3046 3047 3047 3046 3043 3041 3042 3045 3046 3050 3054 3055 3054 3051 3048 3051 3054 3056 3058 3060 3062 3064 3065 3066 3066 3066 3067 3068 3069 3071 3072 3074 3074 3075 3075 3076 3077 3077 3078 3079 3080 3082 3082 3083 3084 3084 3085 3085 3086 3087 3087 3088 3088 3088 3089 3089 3088 3088 3088 3087 3086 3086 3085 3085 3084 3084 3083 3082 3081 3081 3080 3078 3077 3076 3074 3072 3070 3069 3067 3065 3064
3032 3035 3037 3039 3041 3043 3044 3046 3045 3040 3036 3039 3043 3044 3046 3048 3046 3044 3045 3049 3052 3053 3054 3056 3057 3058 3060 3061 3062 3063 3063 3064 3064 3065 3066 3068 3069 3069 3070 3071 3071 3072 3073 3074 3075 3075 3076 3077 3078 3079 3080 3080 3081 3081 3082 3083 3083 3083 3084 3084 3084 3083 3083 3083 3082 3081 3081 3081 3081 3080 3079 3079 3078 3077 3076 3075 3073 3072 3070 3068 3067 3065 3063 3061 3059 3057
3027 3031 3033 3034 3037 3040 3042 3044 3042 3033 3028 3033 3040 3041 3040 3041 3042 3043 3046 3048 3050 3051 3053 3053 3053 3055 3057 3058 3059 3060 3060 3060 3061 3062 3062 3064 3065 3066 3066 3067 3067 3068 3069 3070 3070 3071 3072 3072 3073 3074 3075 3075 3076 3077 3077 3078 3078 3079 3079 3079 3079 3079 3078 3078 3077 3077 3077 3077 3076 3076 3075 3074 3073 3072 3071 3069 3068 3067 3065 3063 3061 3059 3057 3055 3053 3051
3024 3026 3027 3027 3030 3033 3033 3033 3031 3027 3026 3031 3036 3036 3036 3038 3041 3043 3045 3046 3047 3049 3050 3050 3051 3051 3052 3054 3055 3056 3056 3057 3058 3058 3059 3060 3060 3061 3062 3062 3063 3063 3064 3065 3066 3066 3067 3067 3068 3069 3070 3070 3071 3072 3073 3073 3074 3074 3074 3074 3074 3074 3073 3073 3073 3073 3073 3072 3072 3071 3070 3069 3068 3067 3066 3064 3063 3061 3059 3058 3056 3054 3051 3049 3046 3043
3019 3021 3023 3024 3025 3027 3027 3027 3027 3027 3028 3029 3031 3033 3035 3038 3039 3041 3042 3043 3045 3046 3046 3047 3048 3047 3048 3049 3050 3052 3052 3053 3054 3054 3055 3055 3056 3056 3057 3058 3058 3059 3059 3060 3061 3062 3062 3063 3063 3064 3065 3066 3067 3068 3068 3069 3069 3069 3069 3070 3070 3069 3069 3069 3069 3068 3068 3068 3067 3066 3065 3064 3063 3062 3061 3059 3058 3056 3054 3053 3051 3048 3045 3043 3040 3037
3016 3019 3021 3023 3024 3025 3025 3026 3026 3026 3026 3027 3029 3031 3033 3035 3036 3038 3040 3041 3042 3043 3043 3044 3044 3044 3045 3045 3046 3047 3048 3048 3049 3050 3051 3051 3052 3053 3053 3054 3055 3055 3056 3056 3057 3058 3059 3059 3060 3060 3061 3062 3063 3063 3064 3064 3065 3065 3065 3065 3065 3065 3065 3065 3064 3064 3064 3063 3062 3061 3060 3059 3058 3057 3055 3054 3052 3050 3048 3046 3044 3042 3039 3037 3034 3031
3013 3016 3018 3019 3021 3021 3020 3020 3023 3024 3025 3026 3027 3028 3030 3032 3034 3035 3036 3037 3038 3039 3040 3040 3041 3041 3041 3042 3042 3043 3044 3045 3046 3047 3048 3048 3049 3049 3050 3051 3051 3052 3052 3053 3054 3054 3055 3056 3056 3057 3057 3058 3058 3059 3059 3060 3060 3060 3060 3060 3060 3060 3060 3060 3060 3059 3059 3058 3057 3056 3055 3054 3053 3051 3050 3048 3047 3045 3043 3041 3039 3036 3034 3031 3028 3026
3008 3011 3013 3014 3016 3016 3015 3016 3019 3021 3021 3023 3024 3026 3027 3028 3029 3031 3032 3033 3034 3035 3036 3036 3037 3037 3037 3038 3039 3040 3041 3042 3042 3043 3044 3045 3045 3046 3047 3047 3048 3048 3049 3049 3050 3050 3051 3052 3052 3053 3053 3054 3054 3054 3055 3055 3055 3055 3055 3056 3056 3056 3056 3056 3055 3055 3054 3053 3052 3051 3050 3049 3047 3046 3044 3043 3041 3040 3038 3036 3034 3032 3029 3025 3023 3020
3004 3005 3006 3008 3010 3011 3011 3012 3014 3015 3017 3019 3021 3022 3023 3024 3025 3026 3028 3029 3030 3030 3031 3031 3032 3032 3033 3034 3035 3036 3038 3038 3039 3040 3041 3041 3042 3043 3043 3043 3044 3044 3045 3045 3046 3046 3047 3047 3048 3049 3049 3050 3050 3050 3051 3051 3051 3051 3051 3052 3052 3051 3051 3051 3050 3050 3049 3048 3047 3045 3044 3043 3042 3040 3039 3038 3036 3035 3033 3031 3029 3027 3024 3021 3018 3015
2997 2999 3001 3004 3005 3005 3006 3007 3009 3011 3013 3015 3017 3018 3019 3019 3020 3022 3023 3024 3025 3025 3026 3027 3027 3028 3030 3031 3032 3033 3034 3034 3035 3036 3036 3037 3038 3039 3039 3039 3040 3040 3040 3041 3042 3042 3043 3044 3044 3045 3045 3046 3046 3047 3047 3047 3047 3047 3047 3048 3047 3047 3047 3046 3045 3044 3043 3042 3041 3040 3039 3038 3036 3035 3033 3032 3031 3030 3028 3026 3024 3022 3019 3016 3014 3011
2991 2994 2997 2999 2999 3000 3002 3004 3005 3007 3009 3011 3012 3013 3014 3015 3016 3017 3018 3019 3020 3021 3022 3023 3024 3025 3026 3027 3028 3029 3030 3030 3031 3031 3032 3033 3034 3034 3035 3036 3036 3036 3037 3038 3038 3039 3039 3040 3040 3041 3041 3042 3042 3042 3043 3043 3043 3043 3043 3043 3043 3043 3042 3041 3040 3040 3038 3037 3036 3035 3033 3032 3030 3029 3028 3026 3025 3024 3023 3022 3020 3018 3016 3012 3009 3006